Location: Rancho Del Sol Observatory
(38.7214°N, 120.6350°W)
Time: 07:23:45
(UTC-08:00)

A-11 Canister half - Pass Details

Date: 04 February 2020
Orbit: 1517 x 1683 km, 47.2° (Epoch: 26 February)

Event Time Altitude Azimuth Distance (km) Brightness Sun altitude
Rises 05:08:30 0° 293° (WNW) 4,665 - -23.2°
Reaches altitude 10° 05:12:27 10° 278° (W) 3,676 - -22.4°
Exits shadow 05:18:34 21° 236° (SW) 2,884 10.0 -21.2°
Maximum altitude 05:18:51 21° 234° (SW) 2,883 10.0 -21.2°
Drops below altitude 10° 05:25:18 10° 189° (S) 3,694 11.0 -19.9°
Sets 05:29:19 0° 174° (S) 4,694 11.7 -19.2°
